User: anonymous   Login
Location: Chena
(64.8152°N, 147.9227°W)
Time: 14:47:15
(UTC+00:00)
Language:

CUBEBUG 2 - Orbit

View from above orbital plane
View from above orbital plane
View from above satellite
View from above satellite

Ground track
Ground track

The orbit data is extracted from the following two-line orbital elements,

1 39440U 13066AA  21110.16035486  .00000479  00000-0  72607-4 0  9990
2 39440  97.6712  82.4000 0081334  65.0927 295.8709 14.76207948399027
Epoch (UTC): 20 April 2021 03:50:54
Eccentricity: 0.0081334
inclination: 97.6712°
perigee height: 584 km
apogee height: 698 km
right ascension of ascending node: 82.4000°
argument of perigee: 65.0927°
revolutions per day: 14.76207948
mean anomaly at epoch: 295.8709°
orbit number at epoch: 39902

The dashed part of the orbit path shows where the satellite is in the earth's shadow,  

DLR